When you browse on this site, cookies collect data to enhance your experience and personalize the content and advertising you see.
Visit our Privacy Policy to learn more. By continuing to use the site, you agree to this use of cookies and data.

Previsão horária em Voshod

Hoje, 4 Julho, Sábado

Tempo Temperatura Precipitação Vento Pressão Humidade
00:00 +21°C° 0.4 mm 1 m/s 752 mmHg 94%
01:00 +20°C° 0 mm 1 m/s 752 mmHg 94%
02:00 +19°C° 0 mm 2 m/s 752 mmHg 94%
03:00 +20°C° 0 mm 1 m/s 752 mmHg 93%
04:00 +20°C° 0 mm 2 m/s 752 mmHg 92%
05:00 +20°C° 0 mm 2 m/s 752 mmHg 91%
06:00 +21°C° 0 mm 2 m/s 752 mmHg 90%
07:00 +24°C° 0.4 mm 2 m/s 752 mmHg 85%
08:00 +25°C° 0.4 mm 3 m/s 752 mmHg 81%
09:00 +27°C° 0 mm 3 m/s 753 mmHg 78%
10:00 +28°C° 0.3 mm 3 m/s 752 mmHg 73%
11:00 +28°C° 0.3 mm 3 m/s 752 mmHg 68%
12:00 +29°C° 0.3 mm 4 m/s 751 mmHg 63%
13:00 +30°C° 0 mm 4 m/s 751 mmHg 62%
14:00 +30°C° 0 mm 4 m/s 751 mmHg 62%
15:00 +32°C° 0 mm 4 m/s 751 mmHg 61%
16:00 +30°C° 0.3 mm 4 m/s 751 mmHg 67%
17:00 +29°C° 0.3 mm 3 m/s 750 mmHg 73%
18:00 +28°C° 0.3 mm 3 m/s 750 mmHg 78%
19:00 +27°C° 0.1 mm 3 m/s 750 mmHg 81%
20:00 +25°C° 0.1 mm 2 m/s 750 mmHg 84%
21:00 +24°C° 0.1 mm 2 m/s 750 mmHg 88%
22:00 +23°C° 0.9 mm 2 m/s 750 mmHg 89%
23:00 +22°C° 0.9 mm 3 m/s 750 mmHg 90%

Amanhã, 5 Julho, Domingo

Tempo Temperatura Precipitação Vento Pressão Humidade
00:00 +21°C° 0.9 mm 3 m/s 749 mmHg 92%
01:00 +21°C° 0.3 mm 3 m/s 749 mmHg 92%
02:00 +20°C° 0.3 mm 3 m/s 749 mmHg 92%
03:00 +20°C° 0.3 mm 2 m/s 749 mmHg 93%
04:00 +20°C° 0.2 mm 3 m/s 749 mmHg 92%
05:00 +20°C° 0.2 mm 3 m/s 749 mmHg 91%
06:00 +21°C° 0.2 mm 3 m/s 749 mmHg 91%
07:00 +22°C° 0 mm 3 m/s 749 mmHg 87%
08:00 +24°C° 0 mm 3 m/s 749 mmHg 83%
09:00 +26°C° 0 mm 3 m/s 749 mmHg 79%
10:00 +27°C° 0 mm 3 m/s 749 mmHg 74%
11:00 +28°C° 0 mm 3 m/s 749 mmHg 69%
12:00 +29°C° 0 mm 3 m/s 749 mmHg 64%
13:00 +29°C° 0 mm 3 m/s 749 mmHg 65%
14:00 +30°C° 0 mm 3 m/s 749 mmHg 65%
15:00 +30°C° 0 mm 3 m/s 749 mmHg 66%
16:00 +28°C° 1.6 mm 2 m/s 749 mmHg 74%
17:00 +25°C° 1.6 mm 2 m/s 749 mmHg 81%
18:00 +23°C° 1.6 mm 1 m/s 749 mmHg 89%
19:00 +23°C° 0 mm 1 m/s 749 mmHg 89%
20:00 +22°C° 0 mm 1 m/s 749 mmHg 89%
21:00 +22°C° 0 mm 1 m/s 748 mmHg 89%
22:00 +21°C° 0 mm 1 m/s 748 mmHg 89%
23:00 +21°C° 0 mm 1 m/s 748 mmHg 89%

Depois de amanhã, 6 Julho, Segunda-feira

Tempo Temperatura Precipitação Vento Pressão Humidade
00:00 +21°C° 0 mm 1 m/s 748 mmHg 90%
01:00 +21°C° 0.1 mm 1 m/s 748 mmHg 90%
02:00 +21°C° 0.1 mm 1 m/s 748 mmHg 91%
03:00 +20°C° 0.1 mm 1 m/s 748 mmHg 92%
04:00 +21°C° 0 mm 1 m/s 748 mmHg 91%
05:00 +22°C° 0 mm 1 m/s 748 mmHg 91%
06:00 +22°C° 0 mm 1 m/s 748 mmHg 90%
07:00 +24°C° 0 mm 1 m/s 749 mmHg 85%
08:00 +25°C° 0 mm 2 m/s 749 mmHg 79%
09:00 +27°C° 0 mm 2 m/s 749 mmHg 74%
10:00 +28°C° 0.1 mm 3 m/s 749 mmHg 72%
11:00 +28°C° 0.1 mm 3 m/s 749 mmHg 70%
12:00 +29°C° 0.1 mm 3 m/s 749 mmHg 67%
13:00 +29°C° 0.2 mm 3 m/s 749 mmHg 67%
14:00 +29°C° 0.2 mm 3 m/s 749 mmHg 66%
15:00 +30°C° 0.2 mm 3 m/s 749 mmHg 66%
16:00 +29°C° 0.1 mm 3 m/s 749 mmHg 69%
17:00 +29°C° 0.1 mm 2 m/s 749 mmHg 73%
18:00 +29°C° 0.1 mm 1 m/s 749 mmHg 76%
19:00 +27°C° 0 mm 1 m/s 749 mmHg 79%
20:00 +24°C° 0 mm 0 m/s 749 mmHg 82%
21:00 +22°C° 0 mm 0 m/s 749 mmHg 86%
22:00 +21°C° 0 mm 0 m/s 749 mmHg 87%
23:00 +23°C° 0 mm 1 m/s 750 mmHg 88%

7 Julho, Terça-feira

Tempo Temperatura Precipitação Vento Pressão Humidade
00:00 +22°C° 0 mm 1 m/s 750 mmHg 89%
01:00 +22°C° 0 mm 1 m/s 750 mmHg 90%
02:00 +22°C° 0 mm 1 m/s 750 mmHg 91%
03:00 +21°C° 0 mm 1 m/s 750 mmHg 91%
04:00 +22°C° 0 mm 1 m/s 750 mmHg 90%
05:00 +23°C° 0 mm 1 m/s 750 mmHg 88%
06:00 +24°C° 0 mm 2 m/s 751 mmHg 86%
07:00 +26°C° 0 mm 2 m/s 751 mmHg 81%
08:00 +27°C° 0 mm 2 m/s 751 mmHg 76%
09:00 +29°C° 0 mm 3 m/s 751 mmHg 71%
10:00 +30°C° 0 mm 3 m/s 751 mmHg 67%
11:00 +31°C° 0 mm 3 m/s 751 mmHg 63%
12:00 +33°C° 0 mm 3 m/s 751 mmHg 59%
13:00 +33°C° 0 mm 3 m/s 750 mmHg 58%
14:00 +33°C° 0 mm 3 m/s 750 mmHg 56%
15:00 +34°C° 0 mm 3 m/s 750 mmHg 55%
16:00 +33°C° 0 mm 3 m/s 750 mmHg 60%
17:00 +31°C° 0 mm 3 m/s 750 mmHg 65%
18:00 +30°C° 0 mm 2 m/s 750 mmHg 70%
19:00 +29°C° 0 mm 3 m/s 750 mmHg 73%
20:00 +27°C° 0 mm 3 m/s 750 mmHg 77%
21:00 +25°C° 0 mm 3 m/s 750 mmHg 81%
22:00 +24°C° 0 mm 3 m/s 750 mmHg 83%
23:00 +23°C° 0 mm 2 m/s 750 mmHg 85%

8 Julho, Quarta-feira

Tempo Temperatura Precipitação Vento Pressão Humidade
00:00 +23°C° 0 mm 2 m/s 750 mmHg 86%
01:00 +21°C° 0 mm 2 m/s 750 mmHg 87%
02:00 +21°C° 0 mm 2 m/s 750 mmHg 88%
03:00 +21°C° 0 mm 2 m/s 750 mmHg 88%
04:00 +23°C° 0 mm 2 m/s 751 mmHg 86%
05:00 +24°C° 0 mm 2 m/s 751 mmHg 84%
06:00 +24°C° 0 mm 2 m/s 751 mmHg 82%
07:00 +26°C° 0 mm 3 m/s 751 mmHg 78%
08:00 +27°C° 0 mm 4 m/s 750 mmHg 73%
09:00 +29°C° 0 mm 4 m/s 750 mmHg 69%
10:00 +29°C° 0 mm 4 m/s 750 mmHg 67%
11:00 +30°C° 0 mm 5 m/s 750 mmHg 66%
12:00 +32°C° 0 mm 5 m/s 750 mmHg 64%
13:00 +30°C° 0.5 mm 5 m/s 750 mmHg 67%
14:00 +30°C° 0.5 mm 5 m/s 749 mmHg 70%
15:00 +30°C° 0.5 mm 5 m/s 749 mmHg 72%
16:00 +29°C° 0.2 mm 5 m/s 749 mmHg 74%
17:00 +29°C° 0.2 mm 4 m/s 749 mmHg 75%
18:00 +29°C° 0.2 mm 4 m/s 748 mmHg 77%
19:00 +27°C° 0 mm 4 m/s 748 mmHg 80%
20:00 +26°C° 0 mm 3 m/s 748 mmHg 82%
21:00 +25°C° 0 mm 3 m/s 748 mmHg 85%
22:00 +24°C° 0 mm 3 m/s 748 mmHg 85%
23:00 +24°C° 0 mm 3 m/s 748 mmHg 86%

9 Julho, Quinta-feira

Tempo Temperatura Precipitação Vento Pressão Humidade
00:00 +24°C° 0 mm 3 m/s 748 mmHg 86%
01:00 +22°C° 0 mm 3 m/s 747 mmHg 84%
02:00 +22°C° 0 mm 4 m/s 747 mmHg 82%
03:00 +22°C° 0 mm 4 m/s 747 mmHg 80%
04:00 +22°C° 0 mm 4 m/s 747 mmHg 79%
05:00 +23°C° 0 mm 4 m/s 746 mmHg 78%
06:00 +23°C° 0 mm 4 m/s 746 mmHg 78%
07:00 +25°C° 0 mm 5 m/s 746 mmHg 74%
08:00 +27°C° 0 mm 5 m/s 746 mmHg 70%
09:00 +28°C° 0 mm 5 m/s 746 mmHg 67%
10:00 +30°C° 0 mm 5 m/s 746 mmHg 63%
11:00 +32°C° 0 mm 6 m/s 746 mmHg 59%
12:00 +33°C° 0 mm 6 m/s 746 mmHg 55%
13:00 +34°C° 0 mm 6 m/s 746 mmHg 56%
14:00 +34°C° 0 mm 5 m/s 745 mmHg 57%
15:00 +34°C° 0 mm 5 m/s 745 mmHg 57%
16:00 +33°C° 0.3 mm 4 m/s 745 mmHg 62%
17:00 +31°C° 0.3 mm 2 m/s 745 mmHg 67%
18:00 +30°C° 0.3 mm 1 m/s 745 mmHg 72%
19:00 +28°C° 1.3 mm 3 m/s 745 mmHg 77%
20:00 +26°C° 1.3 mm 4 m/s 745 mmHg 82%
21:00 +22°C° 1.3 mm 6 m/s 745 mmHg 87%
22:00 +22°C° 0.5 mm 4 m/s 746 mmHg 89%
23:00 +21°C° 0.5 mm 3 m/s 746 mmHg 91%
Mostrar mais